Bishop, CA

12:54 AM PDT on August 31, 2016 (GMT -0700)
Bishop

Weather History for KBIH - January, 2013

Change the Weather History Date:

Tuesday, January 29, 2013

  Actual Average Record
Temperature  
Mean Temperature 49 °F 40 °F  
Max Temperature 63 °F 55 °F 73 °F (1971)
Min Temperature 35 °F 24 °F 4 °F (1949)
Degree Days  
Heating Degree Days 16 25  
Month to date heating degree days 789 771  
Since 1 July heating degree days 2508 2518  
Cooling Degree Days 0 0  
Month to date cooling degree days 0 0  
Year to date cooling degree days 0 0  
Moisture  
Dew Point 24 °F    
Average Humidity 35    
Maximum Humidity 45    
Minimum Humidity 25    
Precipitation  
Precipitation 0.00 in 0.03 in 0.29 in (1981)
Month to date precipitation T 1.00  
Year to date precipitation T 1.00  
Snow  
Snow 0.00 in 0.10 in 6.00 in (1981)
Month to date snowfall T 5.0  
Since 1 July snowfall 2.8 6.5  
Snow Depth 0.00 in    
Sea Level Pressure  
Sea Level Pressure 30.13 in    
Wind  
Wind Speed 18 mph (North)    
Max Wind Speed 33 mph    
Max Gust Speed 44 mph    
Visibility 10 miles    
Events      
T = Trace of Precipitation, MM = Missing Value Source: NWS Daily Summary

Daily Weather History Graph

Daily Weather History Graph

Search for Another Location

Airport or City:

Trip Planner

Search our weather history database for the weather conditions in past years. The results will help you decide how hot, cold, wet, or windy it might be!

Date:

Astronomy

Jan. 29, 2013 Rise Set
Actual Time 6:58 AM PST 5:14 PM PST
Civil Twilight 6:31 AM PST 5:42 PM PST
Nautical Twilight 5:59 AM PST 6:13 PM PST
Astronomical Twilight 5:29 AM PST 6:44 PM PST
Moon 8:10 PM PST (1/29) 8:02 AM PST (1/29)
Length of Visible Light 11h 11m
Length of Day
10h 16m
Waning Gibbous, 93% of the Moon is Illuminated
Jan 29
Waning Gibbous
Feb 3
Last Quarter
Feb 9
New
Feb 17
First Quarter
Feb 25
Full

Hourly Weather History & Observations

Time (PST) Temp. Windchill Dew Point Humidity Pressure Visibility Wind Dir Wind Speed Gust Speed Precip Events Conditions
12:56 AM 36.0 °F 27.5 °F 16.0 °F 44% 30.08 in 10.0 mi NNW 12.7 mph - N/A   Mostly Cloudy
1:56 AM 37.0 °F 28.5 °F 17.1 °F 44% 30.07 in 10.0 mi North 13.8 mph 21.9 mph N/A   Overcast
2:56 AM 37.9 °F 30.9 °F 18.0 °F 45% 30.07 in 10.0 mi NNW 10.4 mph - N/A   Overcast
3:56 AM 42.1 °F 35.2 °F 21.0 °F 43% 30.06 in 10.0 mi NNW 12.7 mph 20.7 mph N/A   Overcast
4:56 AM 45.0 °F 37.6 °F 21.9 °F 40% 30.05 in 10.0 mi North 17.3 mph 26.5 mph N/A   Overcast
5:56 AM 46.0 °F 38.5 °F 23.0 °F 40% 30.06 in 10.0 mi North 19.6 mph 25.3 mph N/A   Overcast
6:56 AM 48.0 °F - 24.1 °F 39% 30.08 in 10.0 mi North 15.0 mph 27.6 mph N/A   Overcast
7:56 AM 50.0 °F - 25.0 °F 38% 30.10 in 10.0 mi North 13.8 mph - N/A   Overcast
8:56 AM 52.0 °F - 25.0 °F 35% 30.10 in 10.0 mi North 18.4 mph 26.5 mph N/A   Overcast
9:56 AM 53.1 °F - 26.1 °F 35% 30.13 in 10.0 mi North 18.4 mph 28.8 mph N/A   Overcast
10:56 AM 55.0 °F - 27.0 °F 34% 30.13 in 10.0 mi NNW 19.6 mph 24.2 mph N/A   Overcast
11:56 AM 59.0 °F - 26.1 °F 28% 30.08 in 10.0 mi NNW 25.3 mph 31.1 mph N/A   Scattered Clouds
12:56 PM 62.1 °F - 26.1 °F 25% 30.02 in 10.0 mi NNW 31.1 mph 40.3 mph N/A   Clear
1:56 PM 62.1 °F - 26.1 °F 25% 30.01 in 10.0 mi NNW 29.9 mph 39.1 mph N/A   Clear
2:56 PM 61.0 °F - 26.1 °F 26% 30.05 in 10.0 mi NNW 32.2 mph 41.4 mph N/A   Clear
3:56 PM 59.0 °F - 26.1 °F 28% 30.09 in 10.0 mi North 20.7 mph 31.1 mph N/A   Mostly Cloudy
4:56 PM 54.0 °F - 26.1 °F 34% 30.12 in 10.0 mi North 18.4 mph 27.6 mph N/A   Mostly Cloudy
5:56 PM 51.1 °F - 26.1 °F 38% 30.18 in 10.0 mi North 16.1 mph 25.3 mph N/A   Clear
6:56 PM 48.9 °F - 26.1 °F 41% 30.20 in 10.0 mi North 20.7 mph 34.5 mph N/A   Clear
7:56 PM 48.0 °F - 27.0 °F 44% 30.25 in 10.0 mi North 19.6 mph 26.5 mph N/A   Clear
8:56 PM 46.9 °F - 27.0 °F 46% 30.27 in 10.0 mi NNE 17.3 mph - N/A   Clear
9:56 PM 46.4 °F 39.8 °F 26.6 °F 46% 30.33 in 10.0 mi NNE 16.1 mph - N/A   Clear
10:56 PM 46.0 °F 41.0 °F 26.1 °F 46% 30.30 in 10.0 mi NNW 10.4 mph 20.7 mph N/A   Clear
11:56 PM 39.0 °F 33.4 °F 25.0 °F 57% 30.32 in 10.0 mi NNW 8.1 mph - N/A   Clear